Theta_e
337 333 333 330 328 320 331 332 329 333 335 335 335 331 328 325 325 327 321 320 318 314 311 310 310 310 310 310 311 312 314 317 324 322 320 320 323 326 323 323 315 323 326
337 333 332 322 319 317 322 329 329 333 334 334 332 330 330 329 324 321 323 323 321 315 311 311 312 312 311 311 312 313 316 322 324 324 320 310 312 322 321 321 317 312 320
335 333 327 324 317 314 319 323 326 329 330 332 330 331 328 328 327 320 328 325 322 317 313 312 312 312 312 312 312 313 318 323 324 323 322 313 312 312 311 308 307 308 308
335 334 329 320 313 314 314 315 324 329 330 329 326 329 331 330 327 320 323 328 322 322 315 312 312 312 312 312 312 313 316 321 323 323 319 311 309 309 307 307 307 307 308
337 336 326 315 313 318 318 321 323 327 327 327 329 330 330 326 327 319 314 313 322 319 315 313 312 312 311 311 311 314 318 321 322 314 309 308 308 311 312 313 314 315 315
338 333 324 314 319 327 326 327 329 330 328 329 328 329 324 318 313 312 312 313 314 318 314 314 313 313 312 311 311 313 317 318 316 313 313 314 316 316 317 317 317 318 318
336 330 322 315 327 332 329 325 326 331 329 327 328 320 313 312 311 312 313 313 315 314 314 315 315 315 315 314 314 316 317 318 319 317 317 317 320 319 318 318 319 320 320
334 330 324 317 326 331 330 327 323 329 330 327 320 317 312 311 312 313 314 314 314 314 315 315 315 315 314 315 315 316 318 318 320 319 318 319 323 324 324 323 322 322 323
333 331 328 319 319 327 328 328 321 327 328 327 325 316 314 313 313 314 315 315 315 315 315 315 315 315 315 316 317 317 318 319 320 320 319 319 320 323 322 322 322 324 325
333 332 328 323 316 318 325 327 320 322 328 329 322 315 315 315 315 315 316 317 317 316 316 315 315 315 316 317 318 319 320 322 321 321 320 320 320 320 321 321 321 322 323
333 332 331 329 317 314 314 320 319 315 321 325 320 315 316 317 317 317 317 318 318 318 317 317 316 317 318 319 319 319 319 322 321 321 321 320 319 319 320 321 322 322 322
332 333 333 331 329 319 313 313 315 313 315 318 318 320 322 318 319 319 319 319 319 319 319 318 318 317 318 321 320 319 320 322 323 322 321 320 318 318 320 321 320 320 317
332 332 333 331 330 327 314 312 312 311 312 315 316 321 320 318 319 320 320 320 319 320 320 319 318 318 320 320 320 319 320 321 321 322 323 320 318 319 321 318 317 313 309
326 332 332 333 331 327 320 314 312 313 313 314 315 317 318 319 319 320 319 320 320 321 321 321 320 320 321 321 320 320 321 321 321 321 320 319 318 318 317 314 309 303 300
328 323 329 332 331 328 327 323 316 315 315 315 316 317 318 319 319 319 320 321 321 321 322 322 322 323 322 320 319 320 320 321 321 320 319 318 317 317 315 307 301 298 306
330 321 326 331 330 330 325 326 321 317 317 317 317 318 318 319 320 320 321 321 322 322 322 321 322 321 320 323 321 323 322 321 320 318 318 317 311 306 305 299 298 299 300
331 330 321 326 330 330 328 323 321 319 318 319 319 319 319 319 320 320 321 322 326 322 322 323 321 321 321 321 322 321 322 322 319 317 317 314 307 302 300 298 297 297 297
332 331 327 323 326 330 328 320 318 320 319 319 321 320 320 320 320 321 322 323 324 323 323 322 321 320 320 320 320 320 320 320 317 313 314 306 303 300 298 297 297 296 296
333 331 331 326 321 318 326 321 319 318 318 319 319 320 321 321 322 322 323 324 324 323 322 321 320 320 319 320 321 319 320 319 315 307 305 302 298 297 297 297 296 295 295
332 331 329 324 317 314 318 318 319 319 319 319 319 319 320 322 323 321 321 320 321 320 320 320 320 320 319 320 317 320 318 315 312 309 303 300 298 297 296 295 295 295 295
331 327 324 322 316 314 316 318 319 318 318 319 320 320 323 323 323 322 322 321 321 320 320 321 320 320 319 319 317 319 316 316 311 306 302 301 297 296 296 295 294 294 294
332 332 328 324 318 316 316 315 315 316 317 319 321 325 326 326 322 323 323 322 321 321 320 321 321 320 319 319 318 316 317 315 313 310 302 299 296 296 295 294 294 294 294
331 332 331 329 324 318 317 317 317 318 319 322 324 326 326 324 324 324 323 322 322 321 321 321 321 320 319 319 318 316 313 313 312 309 305 301 296 295 295 294 294 293 293
328 332 332 330 329 325 319 319 319 320 321 324 325 325 325 325 324 323 323 323 323 322 321 322 321 320 319 319 318 317 310 305 304 306 305 301 298 295 294 293 293 293 293
325 327 330 331 330 329 326 322 319 320 322 324 326 327 327 326 324 324 324 323 322 322 321 320 320 320 319 319 318 318 311 300 298 298 300 298 297 295 294 293 293 292 292
325 325 326 329 330 330 330 328 327 326 325 326 327 328 328 327 325 324 323 322 322 322 321 321 320 320 319 319 318 317 312 299 298 297 296 296 295 294 294 293 293 292 292
Wind_Speed
10 12 11 6 5 6 10 10 10 10 10 9 9 10 10 9 9 13 12 15 14 12 12 12 13 14 14 15 14 15 18 20 23 20 19 21 22 23 19 20 22 23 21
13 13 9 7 7 8 9 11 12 10 9 8 9 9 11 14 12 13 16 18 16 15 14 14 15 15 14 14 15 17 21 27 26 21 20 20 20 20 18 19 19 19 17
16 12 9 8 8 8 10 10 12 10 6 6 10 12 13 13 13 14 16 17 15 16 15 15 14 15 15 15 16 19 22 27 23 16 14 18 19 19 20 19 20 19 18
13 10 9 9 9 8 9 10 13 14 10 8 12 11 14 14 12 12 15 16 16 16 15 16 16 16 17 18 19 20 21 21 18 11 11 16 19 19 19 19 18 19 19
14 12 9 9 9 11 11 12 14 13 11 12 13 13 13 11 12 10 12 13 15 14 15 17 17 18 19 19 19 19 21 20 14 14 15 16 18 19 19 19 20 20 21
13 12 11 10 11 12 11 13 14 12 12 12 12 12 10 8 7 11 12 13 14 13 16 17 18 19 19 19 19 19 20 17 15 15 17 17 19 19 19 19 20 20 20
15 13 12 13 12 11 10 12 14 12 9 10 11 9 8 8 9 11 12 13 13 14 15 17 17 17 18 18 18 18 20 18 16 17 17 16 19 18 18 18 19 19 20
13 15 14 14 13 13 10 10 15 13 10 7 5 7 8 8 9 10 11 12 12 14 14 15 16 17 17 17 17 17 17 15 15 13 16 17 16 16 16 17 19 20 20
13 11 14 14 14 13 11 9 12 12 11 8 5 7 8 9 9 10 11 12 12 13 13 13 15 16 16 16 15 15 15 15 14 13 15 15 16 15 16 17 17 17 17
14 11 14 14 14 14 12 12 11 13 12 10 6 8 8 9 9 9 10 11 11 12 12 12 13 14 14 14 13 12 13 13 12 9 15 15 15 15 15 15 14 14 15
16 12 10 12 13 14 13 13 11 12 11 9 7 8 8 6 8 9 9 9 10 10 10 10 10 10 11 12 11 12 12 12 10 10 13 15 16 15 15 15 13 12 12
21 17 12 12 10 10 14 13 12 11 10 10 8 7 5 4 7 7 7 7 7 8 8 8 7 7 8 9 9 9 10 10 9 9 11 14 15 14 13 13 10 10 13
25 19 16 15 15 13 13 13 13 12 11 11 10 9 7 6 6 6 5 6 6 5 5 5 6 7 7 7 8 9 8 6 7 8 10 12 13 12 11 10 13 17 17
26 25 21 18 17 14 12 12 14 13 12 11 10 9 7 7 5 3 2 3 3 4 3 4 4 4 5 7 8 7 8 8 8 7 9 11 10 8 13 15 15 16 18
22 26 26 21 19 14 15 13 13 13 12 12 11 9 8 6 6 5 4 2 1 1 1 2 3 4 5 7 8 9 9 7 6 8 8 9 9 9 11 13 15 16 16
22 25 27 25 21 18 16 17 15 14 13 11 11 10 9 7 7 6 5 4 3 3 2 1 1 3 6 7 9 7 10 7 5 5 5 6 7 9 10 14 15 13 14
23 23 27 27 25 21 19 19 17 15 15 13 12 11 10 9 8 8 7 6 4 4 3 2 2 5 3 4 6 4 6 6 6 2 0 4 8 9 11 14 13 14 15
26 24 24 26 27 23 21 20 18 17 17 16 15 13 12 12 11 10 10 7 7 6 4 2 2 5 5 4 5 7 2 5 4 1 2 2 6 12 14 13 12 12 13
26 26 25 26 28 26 24 21 21 21 19 18 16 15 14 14 12 11 11 9 8 7 6 4 3 5 5 7 6 4 4 7 3 3 1 1 6 11 12 11 11 10 13
24 25 26 26 27 28 25 23 22 22 20 20 19 18 18 15 12 11 11 10 12 8 6 5 5 6 6 8 4 1 7 4 2 2 5 2 9 11 9 9 10 12 16
25 25 28 29 28 29 31 30 29 29 25 23 22 20 19 17 14 12 10 9 10 7 7 7 7 6 7 9 1 2 3 5 5 4 5 5 10 10 8 7 9 13 14
34 31 31 31 30 31 31 31 30 28 26 24 24 22 22 17 16 15 14 13 10 9 10 9 10 8 9 11 8 5 6 6 8 8 7 7 10 11 7 7 9 14 15
37 37 36 34 34 33 33 31 30 29 28 27 27 27 25 21 18 17 16 15 14 15 14 15 12 12 14 14 11 8 8 7 12 10 8 8 9 9 8 9 10 14 15
38 38 38 37 37 35 34 35 35 36 36 34 31 28 27 23 22 19 19 17 18 18 16 16 16 17 17 18 17 14 14 11 10 8 10 8 9 8 7 8 10 13 13
35 41 42 40 40 38 38 38 38 38 37 33 31 28 26 24 25 23 21 21 18 19 17 20 22 22 20 21 21 17 15 15 14 13 9 8 9 11 9 7 8 11 11
35 38 40 42 42 41 41 41 41 40 39 37 34 31 30 30 28 27 23 22 21 22 21 21 23 23 23 23 23 20 18 16 14 13 13 11 10 11 10 8 6 9 9
Wind_Direction
145 138 137 110 101 113 119 113 108 102 105 109 98 85 80 83 84 86 85 87 85 89 85 76 73 75 67 73 74 74 73 73 67 56 64 68 70 67 63 60 64 66 65
151 142 138 117 127 136 134 129 131 128 111 111 95 81 90 82 79 88 81 82 78 79 77 72 69 70 73 77 79 80 77 73 67 46 47 62 72 65 66 68 60 62 70
149 152 145 118 113 125 136 146 147 143 133 123 108 95 87 85 87 83 84 82 79 80 76 74 72 72 74 77 82 87 92 87 79 65 36 53 64 62 58 59 58 58 56
141 143 127 114 109 113 114 123 135 136 148 123 109 107 102 95 83 91 97 87 81 79 79 74 72 74 77 80 82 87 90 91 98 101 67 60 62 60 59 57 55 52 51
137 151 125 116 111 109 105 107 115 126 125 121 119 116 106 117 96 95 90 91 88 81 76 75 75 77 76 78 82 88 86 82 65 68 64 62 62 59 56 54 53 51 49
164 150 138 126 118 109 101 109 109 107 113 124 123 119 114 112 99 92 96 87 87 84 79 78 77 76 76 77 79 83 83 77 74 63 65 65 62 57 53 51 49 45 43
172 149 142 131 118 118 101 113 125 118 116 115 123 112 111 113 108 103 95 91 90 82 79 76 77 77 76 77 77 78 79 73 67 63 56 54 53 44 45 46 43 39 36
172 161 146 137 134 133 122 111 130 126 123 113 111 103 106 105 99 94 97 92 86 82 77 75 75 75 75 75 77 76 78 73 75 47 48 43 53 38 29 32 33 31 24
171 169 154 147 148 145 144 132 137 140 142 122 89 100 108 110 104 96 89 88 84 82 79 78 77 77 77 76 74 74 71 61 55 50 38 36 35 37 28 29 25 20 14
172 182 172 156 159 165 159 150 142 148 141 138 123 99 103 110 108 104 95 90 86 85 82 79 79 79 78 71 66 62 67 56 53 24 26 26 24 26 19 21 22 15 10
170 183 188 170 163 171 175 170 161 154 157 159 135 115 120 114 99 99 99 93 89 83 79 76 77 79 77 64 54 50 51 60 33 15 18 17 14 17 13 27 23 14 14
168 179 187 165 171 174 172 174 172 165 161 159 156 135 127 118 102 102 104 98 89 83 79 75 72 68 63 51 47 37 43 49 34 6 3 7 12 18 24 26 20 7 9
171 183 182 188 171 193 169 175 171 172 171 165 173 164 175 150 141 130 116 106 97 97 88 78 67 61 65 50 37 39 39 44 30 4 357 4 12 27 34 16 6 9 13
186 186 182 183 179 200 188 180 176 177 175 175 176 180 177 174 164 139 109 82 79 70 64 47 53 46 29 24 17 15 20 20 22 349 350 1 9 11 6 9 9 7 2
203 195 184 190 179 198 201 187 189 186 184 182 186 183 181 185 180 179 175 175 145 111 51 33 17 24 9 359 0 9 4 8 350 338 344 358 7 8 6 7 4 3 24
212 204 189 188 188 195 207 195 200 196 197 197 194 196 202 200 197 204 207 215 221 212 237 253 35 353 12 354 6 342 349 348 331 353 357 353 9 1 8 3 359 3 358
217 216 201 196 188 194 209 206 205 203 203 205 211 211 217 219 221 227 229 232 199 239 231 195 340 15 357 319 337 341 352 327 343 69 48 353 348 7 356 352 351 353 354
213 223 209 209 196 195 208 210 207 211 210 207 213 218 218 224 229 228 229 220 228 239 212 206 318 342 337 345 319 299 16 295 311 64 150 309 350 347 346 352 360 353 358
218 217 216 212 213 209 204 215 213 222 222 223 225 228 229 230 234 242 229 212 222 222 228 248 273 303 317 312 292 23 283 276 202 327 291 353 359 349 346 350 358 5 7
222 215 222 218 213 210 210 215 218 226 224 225 229 232 239 232 238 236 238 234 230 229 237 266 282 291 307 303 312 29 303 194 187 243 338 337 347 346 349 353 2 2 2
217 218 217 224 217 211 211 211 217 222 222 223 230 233 232 241 238 232 235 241 251 236 245 241 266 280 288 294 305 163 284 210 225 290 294 292 329 340 347 356 356 0 7
206 214 220 225 223 221 221 224 226 230 233 235 231 233 236 243 240 233 234 234 243 241 244 252 255 266 271 280 277 222 192 201 244 273 270 294 323 333 342 349 356 1 9
210 211 215 223 226 225 226 227 228 231 233 233 231 235 233 237 239 236 231 237 239 246 246 254 254 263 270 275 271 230 192 210 206 260 276 297 317 324 329 347 356 3 7
218 215 220 222 226 229 227 229 230 232 232 236 239 240 237 237 236 235 233 235 240 248 255 259 255 262 263 265 261 242 234 222 203 204 250 278 304 312 318 336 352 357 4
224 219 222 224 227 229 230 232 235 235 239 242 244 243 240 238 239 238 240 236 244 252 256 258 261 262 261 259 257 243 237 231 229 225 219 233 280 297 309 318 342 351 356
230 228 226 226 228 230 231 234 236 239 239 240 240 238 238 236 236 236 232 236 248 252 258 259 258 257 258 265 255 245 244 235 235 231 226 228 249 271 287 298 324 339 352